Tracking 35280 objects as of 7-Sep-2026
HD Live streaming from Space Station
objects crossing your sky now

GLOBALSTAR M084

Track GLOBALSTAR M084 now!
10-day predictions
GLOBALSTAR M084 is classified as:


NORAD ID: 38040
Int'l Code: 2011-080A
Launch date: December 28, 2011
Source: Globalstar (GLOB)
Launch site: TYURATAM MISSILE AND SPACE COMPLEX (TTMTR)
Your satellite tracking list
Your tracking list is empty




NASA's NSSDC Master Catalog

Two Line Element Set (TLE):
1 38040U 11080A   26249.99591388 -.00000110  00000-0 -36637-4 0  9993
2 38040  51.9996 128.2278 0000433  63.2240  42.3500 12.62263984679091
Source of the keplerian elements: AFSPC